Weather History for Custer, SD

Change the Weather History Date:

Saturday, October 6, 2012

  Actual Average Record
Temperature  
Mean Temperature 26 °F 46 °F  
Max Temperature 32 °F 58 °F 82 °F (1963)
Min Temperature 20 °F 33 °F 4 °F (1952)
Degree Days  
Heating Degree Days 39 19  
Month to date heating degree days 146 111  
Since 1 July heating degree days 427 597  
Cooling Degree Days 0 0  
Month to date cooling degree days 0 0  
Year to date cooling degree days 390 177  
Moisture  
Dew Point 20 °F    
Average Humidity 77    
Maximum Humidity 96    
Minimum Humidity 58    
Precipitation  
Precipitation 0.04 in 0.06 in 0.61 in (1962)
Month to date precipitation 0.59 0.39  
Year to date precipitation 10.87 16.88  
Sea Level Pressure  
Sea Level Pressure 30.32 in    
Wind  
Wind Speed 5 mph (West)    
Max Wind Speed 16 mph    
Max Gust Speed 23 mph    
Visibility 7 miles    
Events Fog , Snow    
T = Trace of Precipitation, MM = Missing Value Source: NWS Daily Summary

Daily Weather History Graph

Daily Weather History Graph

Search for Another Location

Airport:

Trip Planner

Search our weather history database for the weather conditions in past years. The results will help you decide how hot, cold, wet, or windy it might be!

Date:

Astronomy

Oct. 06, 2012 Rise Set
Actual Time 6:58 AM MDT 6:25 PM MDT
Civil Twilight 6:29 AM MDT 6:54 PM MDT
Nautical Twilight 5:56 AM MDT 7:27 PM MDT
Astronomical Twilight 5:23 AM MDT 8:00 PM MDT
Moon 10:34 PM MDT (10/6) 1:03 PM MDT (10/6)
Length of Visible Light 12h 24m
Length of Day
11h 26m
Waning Gibbous, 65% of the Moon is Illuminated
Oct 6
Waning Gibbous
Oct 8
Last Quarter
Oct 15
New
Oct 21
First Quarter
Oct 29
Full

Hourly Weather History & Observations

Time (MDT) Temp. Windchill Dew Point Humidity Pressure Visibility Wind Dir Wind Speed Gust Speed Precip Events Conditions
12:50 AM 26.6 °F - 24.8 °F 93% 30.28 in 2.5 mi Calm Calm - 0.00 in Snow Light Snow
12:53 AM 26.1 °F - 24.1 °F 92% 30.39 in 2.5 mi Calm Calm - 0.00 in Snow Light Snow
1:07 AM 26.6 °F - 24.8 °F 93% 30.28 in 1.8 mi Calm Calm - 0.00 in Snow Light Snow
1:33 AM 24.8 °F - 23.0 °F 93% 30.28 in 2.0 mi Calm Calm - 0.00 in Snow Light Snow
1:42 AM 26.6 °F 22.6 °F 24.8 °F 93% 30.28 in 3.0 mi East 3.5 mph - 0.00 in Snow Light Snow
1:53 AM 24.1 °F 16.0 °F 21.0 °F 88% 30.41 in 4.0 mi NE 6.9 mph - 0.00 in Snow Light Snow
2:02 AM 24.8 °F 15.3 °F 21.2 °F 86% 30.28 in 6.0 mi ENE 9.2 mph - 0.00 in Snow Light Snow
2:31 AM 23.0 °F 18.4 °F 21.2 °F 93% 30.28 in 6.0 mi ENE 3.5 mph - 0.01 in Snow Light Snow
2:41 AM 23.0 °F 18.4 °F 21.2 °F 93% 30.27 in 7.0 mi ENE 3.5 mph - 0.01 in Snow Light Snow
2:53 AM 23.0 °F 18.4 °F 21.0 °F 92% 30.40 in 10.0 mi ENE 3.5 mph - 0.01 in   Overcast
3:00 AM 23.0 °F 17.0 °F 21.2 °F 93% 30.27 in 10.0 mi ENE 4.6 mph - N/A   Overcast
3:16 AM 23.0 °F 18.4 °F 21.2 °F 93% 30.27 in 5.0 mi ENE 3.5 mph - 0.00 in Snow Light Snow
3:53 AM 23.0 °F - 19.9 °F 88% 30.40 in 8.0 mi Calm Calm - 0.00 in   Overcast
4:16 AM 23.0 °F 18.4 °F 19.4 °F 86% 30.27 in 4.0 mi NE 3.5 mph - 0.00 in Snow Light Snow
4:28 AM 23.0 °F - 19.4 °F 86% 30.27 in 3.0 mi Calm Calm - 0.00 in Snow Light Snow
4:35 AM 23.0 °F - 21.2 °F 93% 30.27 in 3.0 mi Calm Calm - 0.00 in Snow Light Snow
4:53 AM 23.0 °F - 21.0 °F 92% 30.40 in 7.0 mi Calm Calm - 0.00 in   Overcast
5:53 AM 23.0 °F - 21.0 °F 92% 30.40 in 10.0 mi Calm Calm - N/A   Overcast
6:06 AM 23.0 °F - 21.2 °F 93% 30.27 in 6.0 mi Calm Calm - 0.00 in Snow Light Snow
6:19 AM 23.0 °F - 21.2 °F 93% 30.28 in 3.0 mi Calm Calm - 0.00 in Snow Light Snow
6:31 AM 23.0 °F - 21.2 °F 93% 30.28 in 2.5 mi Calm Calm - 0.01 in Snow Light Snow
6:53 AM 23.0 °F - 21.0 °F 92% 30.41 in 2.5 mi Calm Calm - 0.01 in Snow Light Snow
7:03 AM 23.0 °F - 21.2 °F 93% 30.28 in 2.0 mi Calm Calm - 0.00 in Snow Light Snow
7:09 AM 23.0 °F - 21.2 °F 93% 30.28 in 0.8 mi Calm Calm - 0.00 in Snow Light Snow
7:17 AM 23.0 °F - 21.2 °F 93% 30.28 in 0.2 mi Calm Calm - 0.01 in Fog , Snow Heavy Snow
7:32 AM 23.0 °F 18.4 °F 21.2 °F 93% 30.28 in 0.8 mi North 3.5 mph - 0.02 in Snow Light Snow
7:35 AM 23.0 °F 18.4 °F 21.2 °F 93% 30.28 in 1.0 mi North 3.5 mph - 0.02 in Snow Light Snow
7:53 AM 23.0 °F 17.0 °F 19.9 °F 88% 30.43 in 1.2 mi North 4.6 mph - 0.02 in Snow Light Snow
8:53 AM 26.1 °F - 19.0 °F 75% 30.42 in 10.0 mi Calm Calm - 0.00 in   Partly Cloudy
9:53 AM 28.0 °F 24.2 °F 19.0 °F 69% 30.42 in 10.0 mi West 3.5 mph - N/A   Mostly Cloudy
10:01 AM 26.6 °F - 19.4 °F 74% 30.30 in 10.0 mi Calm Calm - N/A   Mostly Cloudy
10:37 AM 28.4 °F 22.2 °F 21.2 °F 74% 30.30 in 10.0 mi SW 5.8 mph - N/A   Overcast
10:48 AM 26.6 °F 20.0 °F 19.4 °F 74% 30.30 in 10.0 mi SW 5.8 mph - N/A   Mostly Cloudy
10:53 AM 28.0 °F 22.8 °F 19.9 °F 72% 30.41 in 10.0 mi Variable 4.6 mph - N/A   Overcast
11:53 AM 28.0 °F 20.8 °F 21.0 °F 75% 30.41 in 10.0 mi WSW 6.9 mph - N/A   Scattered Clouds
12:06 PM 26.6 °F 19.1 °F 21.2 °F 80% 30.29 in 10.0 mi Variable 6.9 mph - N/A   Mostly Cloudy
12:41 PM 28.4 °F 19.7 °F 19.4 °F 69% 30.28 in 10.0 mi SW 9.2 mph - N/A   Partly Cloudy
12:53 PM 28.0 °F 19.3 °F 21.0 °F 75% 30.39 in 10.0 mi WSW 9.2 mph - N/A   Mostly Cloudy
1:43 PM 28.4 °F 20.4 °F 21.2 °F 74% 30.25 in 10.0 mi WSW 8.1 mph - N/A   Overcast
1:53 PM 28.9 °F 20.4 °F 21.0 °F 72% 30.37 in 10.0 mi WSW 9.2 mph 17.3 mph N/A   Overcast
2:19 PM 30.2 °F 21.3 °F 21.2 °F 69% 30.24 in 10.0 mi WSW 10.4 mph 18.4 mph N/A   Overcast
2:53 PM 30.9 °F 21.2 °F 21.9 °F 69% 30.35 in 10.0 mi SW 12.7 mph 18.4 mph N/A   Overcast
3:53 PM 32.0 °F 23.0 °F 21.0 °F 64% 30.33 in 10.0 mi West 11.5 mph 18.4 mph N/A   Partly Cloudy
4:53 PM 30.9 °F 22.8 °F 19.0 °F 61% 30.33 in 10.0 mi WSW 9.2 mph 19.6 mph N/A   Clear
5:53 PM 28.9 °F 21.9 °F 16.0 °F 58% 30.33 in 10.0 mi WSW 6.9 mph - N/A   Clear
6:53 PM 26.1 °F 19.4 °F 16.0 °F 66% 30.34 in 10.0 mi West 5.8 mph - N/A   Clear
7:53 PM 24.1 °F 18.2 °F 15.1 °F 69% 30.34 in 10.0 mi West 4.6 mph - N/A   Clear
8:53 PM 21.9 °F 17.2 °F 14.0 °F 72% 30.33 in 10.0 mi WSW 3.5 mph - N/A   Clear
9:53 PM 23.0 °F - 14.0 °F 68% 30.31 in 10.0 mi Calm Calm - N/A   Clear
10:53 PM 21.0 °F 16.2 °F 14.0 °F 74% 30.29 in 10.0 mi WSW 3.5 mph - N/A   Clear
11:53 PM 23.0 °F 14.7 °F 14.0 °F 68% 30.26 in 10.0 mi West 6.9 mph - N/A   Clear